Fairbury, Nebraska, United States (68352)
Lat: 40.14N, Lon: 97.18W
Wx Zone: NEZ088
Local Info
Past Weather Observations for Today

NOTE: This archive is for the closest National Weather Service station to Fairbury. Information may differ from the station used for current weather conditions.

Click here for Long-term Archive

Time Weather Temperature Dewpoint Humidity Pressure Winds Precip Visibility
14:35
Mostly Cloudy
55°F / 13°C 43°F / 6°C 63% 29.98 in
(1015 mb)
E 12.7 mph
(E 20 kph)
- 10SM
14:15
Mostly Cloudy
55°F / 13°C 41°F / 5°C 59% 29.98 in
(1015 mb)
ENE 16.1 mph
(ENE 26 kph)
- 10SM
13:55
Overcast
55°F / 13°C 43°F / 6°C 63% 29.98 in
(1015 mb)
ENE 15 mph
(ENE 24 kph)
- 10SM
13:35
Overcast
57°F / 14°C 43°F / 6°C 59% 29.98 in
(1015 mb)
E 15 mph
(E 24 kph)
- 10SM
13:15
Overcast
54°F / 12°C 43°F / 6°C 67% 30.01 in
(1016 mb)
E 16.1 mph
(E 26 kph)
- 10SM
12:55
Overcast
52°F / 11°C 41°F / 5°C 67% 30.01 in
(1016 mb)
E 13.8 mph
(E 22 kph)
- 10SM
12:35
Overcast
52°F / 11°C 43°F / 6°C 72% 30.01 in
(1016 mb)
E 12.7 mph
(E 20 kph)
- 10SM
12:15
Mostly Cloudy
52°F / 11°C 43°F / 6°C 72% 30.01 in
(1016 mb)
E 12.7 mph
(E 20 kph)
- 10SM
11:55
Overcast
50°F / 10°C 41°F / 5°C 71% 30.01 in
(1016 mb)
E 16.1 mph
(E 26 kph)
- 10SM
11:35
Overcast
50°F / 10°C 41°F / 5°C 71% 30.01 in
(1016 mb)
ENE 15 mph
(ENE 24 kph)
- 10SM
11:15
Overcast
50°F / 10°C 43°F / 6°C 76% 30.01 in
(1016 mb)
ENE 16.1 mph
(ENE 26 kph)
- 10SM
10:55
Overcast
50°F / 10°C 43°F / 6°C 76% 30.01 in
(1016 mb)
E 16.1 mph
(E 26 kph)
- 10SM
10:35
Overcast
50°F / 10°C 43°F / 6°C 76% 30.01 in
(1016 mb)
ENE 16.1 mph
(ENE 26 kph)
- 10SM
10:15
Overcast
50°F / 10°C 43°F / 6°C 76% 30.01 in
(1016 mb)
ENE 12.7 mph
(ENE 20 kph)
- 10SM
09:55
Overcast
48°F / 9°C 43°F / 6°C 82% 30.01 in
(1016 mb)
E 8.1 mph
(E 13 kph)
- 10SM
09:35
Overcast
46°F / 8°C 43°F / 6°C 87% 30.01 in
(1016 mb)
E 9.2 mph
(E 15 kph)
- 7SM
09:15
Overcast
Fog And Mist
46°F / 8°C 43°F / 6°C 87% 30.01 in
(1016 mb)
ENE 11.5 mph
(ENE 19 kph)
- 5SM
08:55
Overcast
Fog And Mist
46°F / 8°C 41°F / 5°C 82% 30.01 in
(1016 mb)
E 9.2 mph
(E 15 kph)
- 5SM
08:35
Overcast
Fog And Mist
46°F / 8°C 43°F / 6°C 87% 30.01 in
(1016 mb)
ENE 10.4 mph
(ENE 17 kph)
- 5SM
08:15
Overcast
Fog And Mist
46°F / 8°C 41°F / 5°C 82% 30.01 in
(1016 mb)
E 9.2 mph
(E 15 kph)
- 5SM
07:55
Overcast
Fog And Mist
46°F / 8°C 43°F / 6°C 87% 29.98 in
(1015 mb)
ENE 10.4 mph
(ENE 17 kph)
- 5SM
07:35
Overcast
Fog And Mist
46°F / 8°C 43°F / 6°C 87% 29.98 in
(1015 mb)
ENE 11.5 mph
(ENE 19 kph)
- 5SM
07:15
Overcast
Fog And Mist
46°F / 8°C 41°F / 5°C 82% 29.98 in
(1015 mb)
ENE 10.4 mph
(ENE 17 kph)
- 5SM
06:55
Overcast
46°F / 8°C 41°F / 5°C 82% 29.98 in
(1015 mb)
E 8.1 mph
(E 13 kph)
- 7SM
06:35
Overcast
46°F / 8°C 41°F / 5°C 82% 29.95 in
(1014 mb)
E 12.7 mph
(E 20 kph)
- 7SM
06:15
Overcast
46°F / 8°C 43°F / 6°C 87% 29.95 in
(1014 mb)
E 12.7 mph
(E 20 kph)
- 7SM
05:55
Overcast
Fog And Mist
46°F / 8°C 45°F / 7°C 93% 29.92 in
(1013 mb)
ENE 10.4 mph
(ENE 17 kph)
- 4SM
05:35
Overcast
Fog And Mist
46°F / 8°C 43°F / 6°C 87% 29.92 in
(1013 mb)
E 10.4 mph
(E 17 kph)
- 5SM
05:15
Overcast
Fog And Mist
46°F / 8°C 43°F / 6°C 87% 29.92 in
(1013 mb)
E 10.4 mph
(E 17 kph)
- 5SM
04:55
Overcast
Fog And Mist
46°F / 8°C 45°F / 7°C 93% 29.92 in
(1013 mb)
ENE 12.7 mph
(ENE 20 kph)
- 3SM
04:35
Overcast
Fog And Mist
46°F / 8°C 45°F / 7°C 93% 29.92 in
(1013 mb)
ENE 12.7 mph
(ENE 20 kph)
- 4SM
04:15
Overcast
Fog And Mist
46°F / 8°C 45°F / 7°C 93% 29.92 in
(1013 mb)
ENE 11.5 mph
(ENE 19 kph)
- 5SM
03:55
Overcast
Fog And Mist
46°F / 8°C 45°F / 7°C 93% 29.89 in
(1012 mb)
ENE 11.5 mph
(ENE 19 kph)
- 4SM
03:35
Overcast
Light Rain
46°F / 8°C 45°F / 7°C 93% 29.89 in
(1012 mb)
ENE 11.5 mph
(ENE 19 kph)
- 2 1/2SM
03:15
Overcast
Fog And Mist
46°F / 8°C 45°F / 7°C 93% 29.89 in
(1012 mb)
ENE 9.2 mph
(ENE 15 kph)
- 2 1/2SM
02:55
Overcast
Fog And Mist
48°F / 9°C 45°F / 7°C 87% 29.89 in
(1012 mb)
ENE 9.2 mph
(ENE 15 kph)
- 5SM
02:35
Overcast
48°F / 9°C 45°F / 7°C 87% 29.89 in
(1012 mb)
ENE 8.1 mph
(ENE 13 kph)
- 7SM
02:15
Overcast
48°F / 9°C 45°F / 7°C 87% 29.89 in
(1012 mb)
ENE 8.1 mph
(ENE 13 kph)
- 7SM
01:55
Overcast
48°F / 9°C 45°F / 7°C 87% 29.89 in
(1012 mb)
E 10.4 mph
(E 17 kph)
- 7SM
01:35
Overcast
Fog And Mist
48°F / 9°C 45°F / 7°C 87% 29.89 in
(1012 mb)
ENE 9.2 mph
(ENE 15 kph)
- 4SM
01:15
Overcast
Fog And Mist
48°F / 9°C 45°F / 7°C 87% 29.89 in
(1012 mb)
ENE 10.4 mph
(ENE 17 kph)
- 2 1/2SM
00:55
Overcast
Fog And Mist
48°F / 9°C 45°F / 7°C 87% 29.89 in
(1012 mb)
ENE 10.4 mph
(ENE 17 kph)
- 2SM
00:35
Overcast
Fog And Mist
48°F / 9°C 45°F / 7°C 87% 29.89 in
(1012 mb)
ENE 10.4 mph
(ENE 17 kph)
- 5SM
00:15
Overcast
Fog And Mist
48°F / 9°C 45°F / 7°C 87% 29.89 in
(1012 mb)
ENE 8.1 mph
(ENE 13 kph)
- 3SM
Time Weather Temperature Dewpoint Humidity Pressure Winds Precip Visibility


Weather for websites

WeatherForYou.com, LLC is not responsible for any damages or problems caused by this service. Current weather conditions are obtained from the closest station including government and personal stations which may have varying degrees of accuracy. Weather forecasts are derived from the NOAA NDFD. Like all things, this site belongs to Jesus Christ... He just trusts us to maintain it. If you have any questions or comments email webmaster@weatherforyou.com

Copyright © 2015, WeatherForYou.com LLC. All rights reserved.